This demonstration page uses our WeatherBlox Daily Observations layout. Learn more.

Left ArrowRight Arrow

44.31136, -96.79839

Hourly Observations for September 10, 2021

Temp ( °F °C ) Dew Point ( °F °C ) Humidity (%) Winds ( mph kmh ) Pressure ( in mb ) Visibility ( mi km ) Precip ( " mm )
12:56 am 00:56 Clear 58 14.4 51 10.6 78 78 SSE 12 19 30.00 1016 10 16 0.00 0.00
1:56 am 01:56 Clear 58 14.4 51 10.6 78 78 SSE 13 20 29.98 1015 10 16 0.00 0.00
2:56 am 02:56 Clear 57 13.9 51 10.6 81 81 SSE 9 15 29.97 1015 10 16 0.00 0.00
3:56 am 03:56 Clear 56 13.3 51 10.6 84 84 SSE 8 13 29.97 1015 10 16 0.00 0.00
4:56 am 04:56 Clear 56 13.3 51 10.6 84 84 SSE 10 17 29.97 1015 10 16 0.00 0.00
5:56 am 05:56 Clear 56 13.3 51 10.6 84 84 SE 9 15 29.96 1015 10 16 0.00 0.00
6:56 am 06:56 Clear 56 13.3 51 10.6 84 84 SSE 8 13 29.96 1015 10 16 0.00 0.00
7:56 am 07:56 Sunny 56 13.3 51 10.6 84 84 SSE 8 13 29.96 1015 10 16 0.00 0.00
8:56 am 08:56 Sunny 60 15.6 53 11.7 78 78 S 9 15 29.97 1015 10 16 0.00 0.00
9:56 am 09:56 Sunny 65 18.3 56 13.3 73 73 SSW 8 13 29.96 1015 10 16 0.00 0.00
10:56 am 10:56 Sunny 69 20.6 58 14.4 68 68 S 9 15 29.97 1015 10 16 0.00 0.00
11:56 am 11:56 Sunny 72 22.2 60 15.6 66 66 SSW 8 13 29.95 1014 10 16 0.00 0.00
12:56 pm 12:56 Sunny 75 23.9 61 16.1 62 62 S 8 13 29.94 1014 10 16 0.00 0.00
1:56 pm 13:56 Sunny 78 25.6 62 16.7 58 58 SSW 7 11 29.92 1013 10 16 0.00 0.00
2:56 pm 14:56 Sunny 80 26.7 62 16.7 54 54 WSW 6 9 29.92 1013 10 16 0.00 0.00
3:56 pm 15:56 Sunny 81 27.2 63 17.2 54 54 S 6 9 29.91 1013 10 16 0.00 0.00
4:56 pm 16:56 Sunny 83 28.3 62 16.7 49 49 SSW 5 7 29.89 1012 10 16 0.00 0.00
5:56 pm 17:56 Sunny 80 26.7 64 17.8 58 58 S 3 6 29.89 1012 10 16 0.00 0.00
6:56 pm 18:56 Sunny 77 25 63 17.2 62 62 SSE 6 9 29.89 1012 10 16 0.00 0.00
7:56 pm 19:56 Clear 73 22.8 64 17.8 74 74 SSE 8 13 29.90 1013 10 16 0.00 0.00
8:56 pm 20:56 Clear 69 20.6 64 17.8 84 84 SSE 5 7 29.92 1013 10 16 0.00 0.00
9:56 pm 21:56 Clear 68 20 63 17.2 84 84 S 7 11 29.91 1013 10 16 0.00 0.00
10:56 pm 22:56 Clear 66 18.9 63 17.2 90 90 S 8 13 29.90 1013 10 16 0.00 0.00
11:56 pm 23:56 Clear 64 17.8 61 16.1 90 90 Calm 29.90 1012 10 16 0.00 0.00

Powered by AerisWeather